Hourly Weather Roundup
Issued by NWS Central Illinois

Home | Current Version | Previous Version | Text Only | Print | Product List | Glossary On
Versions: 1 2 3 4 5 6 7 8 9 10 11 12 13 14 15 16 17 18 19 20 21 22 23 24 25 26 27 28 29 30 31 32 33 34 35 36 37 38 39 40 41 42 43 44 45 46 47 48 49 50
000
NZUS43 KILX 191810
HWRILX

Area Weather Roundup
National Weather Service Lincoln IL
100 PM CDT THU APR 19 2018

NOTE:  "FAIR" indicates few or no clouds below 12,000 feet, with
       no sigificant weather and/or obstructions to visibility.


CITY           SKY/WX    TMP DP  RH WIND       PRES   REMARKS
Bloomington    FAIR      51  30  44 NW17      30.37R
6HR MIN TEMP:  34; 6HR MAX TEMP:  51;

Champaign      FAIR      52  31  44 N16       30.34R
6HR MIN TEMP:  35; 6HR MAX TEMP:  52;

Danville       FAIR      49  33  52 N15       30.30S
6HR MIN TEMP:  35; 6HR MAX TEMP:  50;

Decatur        FAIR      52  31  44 N16G22    30.37R
6HR MIN TEMP:  35; 6HR MAX TEMP:  52;

Effingham      PTSUNNY   49  35  58 N7G18     30.38S
6HR MIN TEMP:  36; 6HR MAX TEMP:  49;

Flora          PTSUNNY   49  35  58 N8G16     30.38R
6HR MIN TEMP:  38; 6HR MAX TEMP:  49;

Galesburg      FAIR      54  32  42 N10G17    30.43R
6HR MIN TEMP:  37; 6HR MAX TEMP:  54;

Jacksonville   SUNNY     51  32  48 NW10G17   30.41R
6HR MIN TEMP:  35; 6HR MAX TEMP:  51;

Lacon          FAIR      49  30  48 N8        30.39S
6HR MIN TEMP:  33; 6HR MAX TEMP:  49;

Lawrenceville  PTSUNNY   50  32  50 N7        30.35R
6HR MIN TEMP:  37; 6HR MAX TEMP:  51;

Litchfield     PTSUNNY   48  34  57 N12       30.40R
6HR MIN TEMP:  34; 6HR MAX TEMP:  48;

$$


CITY           SKY/WX    TMP DP  RH WIND       PRES   REMARKS
Lincoln        FAIR      52  32  45 NE9G17    30.38R
6HR MIN TEMP:  36; 6HR MAX TEMP:  52;

Macomb         SUNNY     51  28  41 NE12G22   30.44R
6HR MIN TEMP:  33; 6HR MAX TEMP:  51;

Mattoon        PTSUNNY   50  33  52 N13G21    30.35R
6HR MIN TEMP:  34; 6HR MAX TEMP:  50;

Mt Carmel AP   PTSUNNY   48  32  53 N13G21    30.34S
6HR MIN TEMP:  36; 6HR MAX TEMP:  49;

Olney-Noble AP PTSUNNY   47  29  49 N7        30.37R
Paris AP       PTSUNNY   50  34  55 N10G17    30.34S
6HR MIN TEMP:  34; 6HR MAX TEMP:  50;

Peoria         FAIR      50  27  40 N6G18     30.40R
6HR MIN TEMP:  35; 6HR MAX TEMP:  51;

Pontiac        FAIR      50  27  41 N13G20    30.37S
6HR MIN TEMP:  33; 6HR MAX TEMP:  50;

Rantoul        FAIR      52  33  47 N12G17    30.34R
6HR MIN TEMP:  37; 6HR MAX TEMP:  53;

Robinson       PTSUNNY   48  32  54 N13G26    30.35R
6HR MIN TEMP:  35; 6HR MAX TEMP:  49;

Springfield    FAIR      53  32  44 NE13      30.40R
6HR MIN TEMP:  37; 6HR MAX TEMP:  54;

Taylorville    FAIR      49  31  48 N12       30.39R
6HR MIN TEMP:  34; 6HR MAX TEMP:  50;

$$

...REGIONAL REPORTS...


CITY           SKY/WX    TMP DP  RH WIND       PRES   REMARKS
Chicago O`Hare FAIR      50  28  42 N9        30.34R
Kankakee       FAIR      49  31  49 N9        30.35S
La Salle       FAIR      49  29  47 N10G17    30.39S
Moline         FAIR      50  27  40 N6        30.42S
Mount Sterling MOSUNNY   49  31  48 NE7       30.42R
Mount Vernon   CLOUDY    47  33  58 VRB6      30.38S
Pittsfield     MOSUNNY   51  33  50 N8        30.43R
Quincy         MOSUNNY   51  31  46 NW13G18   30.43R
Rockford       FAIR      47  27  45 N9        30.40S
$$


CITY           SKY/WX    TMP DP  RH WIND       PRES   REMARKS
Burlington     SUNNY     53  29  39 N10       30.43R
Cedar Rapids   FAIR      50  25  37 N12       30.45R
Des Moines     MOSUNNY   49  27  42 N10       30.49R
Kirksville     SUNNY     51  31  46 VRB6G16   30.45S
Ottumwa        SUNNY     50  29  44 N10       30.46S
St Louis       PTSUNNY   48  33  56 N13G18    30.42S
$$


CITY           SKY/WX    TMP DP  RH WIND       PRES   REMARKS
Terre Haute    FAIR      51  34  52 NE10      30.32R
Evansville     CLOUDY    48  34  58 N9G17     30.35R
Indianapolis   FAIR      49  30  48 NW17G24   30.29R
Lafayette      FAIR      50  32  50 N17G24    30.31R
Madison        FAIR      42  24  49 NW7       30.39S
Milwaukee      FAIR      45  24  43 NW7       30.35R
$$






USA.gov is the U.S. government's official web portal to all federal, state and local government web resources and services.